Regional Weather Roundup
Issued by NWS

Home | Current Version | Previous Version | Text Only | Print | Product List | Glossary Off
Versions: 1 2 3 4 5 6 7 8 9 10 11 12 13 14 15 16 17 18 19 20 21 22 23 24 25 26 27 28 29 30 31 32 33 34 35 36 37 38 39 40 41 42 43 44 45 46 47 48 49 50

000
ASUS43 KBIS 250202
RWRND

NORTH DAKOTA REGIONAL WEATHER ROUNDUP
NATIONAL WEATHER SERVICE BISMARCK ND
900 PM CDT WED AUG 24 2016

NOTE: "FAIR" INDICATES FEW OR NO CLOUDS BELOW 12,000 FEET WITH NO
SIGNIFICANT WEATHER AND/OR OBSTRUCTIONS TO VISIBILITY.


NDZ001>003-009>011-017-250300-
NORTHWEST NORTH DAKOTA

CITY           SKY/WX    TMP DP  RH WIND       PRES   REMARKS
WILLISTON      CLOUDY    57  47  69 NW14      30.11R
MINOT          CLOUDY    61  53  75 W18G25    29.98R
MINOT AFB      CLOUDY    57  54  91 W18G25    29.97R
$$

NDZ018>021-031>035-040>046-250300-
SOUTHWEST NORTH DAKOTA

CITY           SKY/WX    TMP DP  RH WIND       PRES   REMARKS
BISMARCK       CLEAR     64  46  52 W15G24    30.05R
DICKINSON      MOCLDY    57  43  59 NW17      30.11R
GARRISON         N/A     57  53  86 W13       30.03R
HETTINGER ARPT CLEAR     59  42  53 NW15      30.16R
$$

NDZ004>008-012>016-024-026-027-054-250300-
NORTHEAST NORTH DAKOTA

CITY           SKY/WX    TMP DP  RH WIND       PRES   REMARKS
GRAND FORKS    CLEAR     63  52  67 W8        29.90R
DEVILS LAKE    PTCLDY    64  51  62 W17       29.93R
$$

NDZ022-023-025-028>030-036>039-047>053-250300-
SOUTHEAST NORTH DAKOTA

CITY           SKY/WX    TMP DP  RH WIND       PRES   REMARKS
FARGO          CLEAR     65  52  62 SW9       29.94S
JAMESTOWN      CLEAR     62  52  69 W8        29.98R
$$





USA.gov is the U.S. government's official web portal to all federal, state and local government web resources and services.